EST,Max TemperatureF,Mean TemperatureF,Min TemperatureF,Max Dew PointF,MeanDew PointF,Min DewpointF,Max Humidity, Mean Humidity, Min Humidity, Max Sea Level PressureIn, Mean Sea Level PressureIn, Min Sea Level PressureIn, Max VisibilityMiles, Mean VisibilityMiles, Min VisibilityMiles, Max Wind SpeedMPH, Mean Wind SpeedMPH, Max Gust SpeedMPH,PrecipitationIn, CloudCover, Events, WindDirDegrees
2012-11-1,43,38,35,36,33,27,93,79,55,29.81,29.70,29.64,10,9,4,23,15,32,0.00,8,Rain,320
2012-11-2,39,35,32,34,29,27,88,78,65,30.15,30.00,29.80,10,8,1,22,15,30,0.01,8,Rain-Snow,341
2012-11-3,35,32,28,29,26,23,89,76,70,30.25,30.22,30.12,10,10,4,10,6,,0.00,8,Snow,354
2012-11-4,39,32,28,27,25,23,85,73,60,30.26,30.24,30.20,10,10,10,9,3,,0.00,6,,351
2012-11-5,34,30,23,25,21,18,82,69,56,30.31,30.26,30.19,10,10,10,12,6,,0.00,8,,62
2012-11-6,39,29,19,27,24,17,89,69,51,30.18,30.06,30.00,10,10,8,9,4,,0.00,7,,150
2012-11-7,43,34,24,30,26,22,91,73,56,30.19,30.14,30.05,10,10,10,9,3,,0.00,5,,133
2012-11-8,46,37,28,37,33,25,92,75,65,30.19,30.12,30.05,10,10,9,9,3,,0.00,8,,205
2012-11-9,50,46,43,40,38,37,89,76,61,30.18,30.11,30.05,10,9,5,9,4,,0.00,8,,337
2012-11-10,46,44,42,46,41,37,100,91,81,30.19,30.07,29.88,10,6,2,17,10,25,0.14,8,Rain,105
2012-11-11,68,54,39,52,46,39,100,84,52,29.91,29.84,29.70,10,5,0,20,3,38,0.08,3,Fog-Rain,174
2012-11-12,53,40,26,50,31,17,93,82,61,30.12,29.91,29.73,10,6,0,20,12,31,0.12,8,Fog-Rain-Snow,249
2012-11-13,37,29,21,27,22,17,89,68,59,30.51,30.36,30.14,10,10,4,13,8,23,0.00,5,Snow,252
2012-11-14,39,32,25,28,24,19,82,71,62,30.54,30.48,30.40,10,10,10,10,5,,0.00,2,,154
2012-11-15,48,38,28,36,29,22,78,66,48,30.40,30.33,30.27,10,10,9,10,4,,0.00,5,,192
2012-11-16,43,34,21,36,24,17,92,70,35,30.54,30.47,30.33,10,10,10,8,4,,0.00,1,,321
2012-11-17,39,29,19,37,28,16,100,93,84,30.58,30.54,30.50,10,3,0,6,1,,0.00,5,Fog,134
2012-11-18,55,40,25,36,28,23,100,80,33,30.53,30.48,30.39,10,6,0,8,1,,0.00,0,Fog,152
2012-11-19,52,38,24,36,31,23,96,74,50,30.38,30.28,30.14,10,9,5,7,1,,0.00,3,Rain,138
2012-11-20,52,46,39,43,39,34,96,82,69,30.17,30.13,30.09,10,9,4,7,1,,0.00,8,,310
2012-11-21,54,48,43,43,41,35,93,74,53,30.19,30.10,29.97,10,8,4,12,4,,0.00,4,,191
2012-11-22,68,59,50,46,38,33,65,48,28,29.97,29.78,29.55,10,10,9,20,11,33,0.00,2,,209
2012-11-23,57,44,30,47,28,21,89,78,69,29.96,29.65,29.48,10,6,0,30,17,50,0.05,8,Fog-Rain-Snow,285
2012-11-24,30,28,26,23,20,17,80,70,64,30.11,30.01,29.93,10,9,2,23,14,29,0.01,8,Snow,324
2012-11-25,32,29,26,27,24,19,93,83,64,29.94,29.81,29.73,10,6,1,20,6,28,0.06,8,Snow,234
2012-11-26,28,24,21,23,18,12,86,69,55,30.30,30.15,29.96,10,8,1,15,11,22,0.01,8,Snow,298
2012-11-27,32,29,26,27,20,17,88,69,54,30.30,30.19,30.04,10,8,1,18,7,28,0.03,8,Snow,236
2012-11-28,32,26,21,28,22,15,93,77,58,30.24,30.15,30.04,10,6,1,17,10,23,0.04,8,Snow,290
2012-11-29,34,29,24,27,22,17,85,75,64,30.35,30.24,30.11,10,10,10,20,9,24,0.00,7,,32
2012-11-30,30,27,24,28,23,17,93,84,69,30.40,30.35,30.31,10,6,1,17,11,23,0.01,8,Snow,94